This demonstration page uses our WeatherBlox Daily Observations layout. Learn more.

Left ArrowRight Arrow

44.89941, -97.11507

Hourly Observations for May 12, 2019

Temp ( °F °C ) Dew Point ( °F °C ) Humidity (%) Winds ( mph kmh ) Pressure ( in mb ) Visibility ( mi km ) Precip ( " mm )
12:53 am 00:53 Mostly Cloudy 46 7.8 43 6.1 89 89 SSE 9 15 29.75 1008 10 16 0.00 0.00
1:46 am 01:46 Mostly Cloudy 45 7.2 43 6.1 93 93 SE 8 13 29.78 1008 10 16 0.00 0.00
1:53 am 01:53 Mostly Cloudy 45 7.2 43 6.1 93 93 SE 7 11 29.76 1008 10 16 0.00 0.00
2:53 am 02:53 Cloudy 46 7.8 44 6.7 93 93 SSE 7 11 29.76 1008 10 16 0.00 0.00
3:22 am 03:22 Cloudy 46 7.8 44 6.7 93 93 SE 10 17 29.76 1008 10 16 0.00 0.00
3:53 am 03:53 Cloudy 46 7.8 44 6.7 93 93 SSE 8 13 29.77 1008 10 16 0.00 0.00
4:10 am 04:10 Cloudy 46 7.8 43 6.1 89 89 SSE 8 13 29.77 1008 10 16 0.00 0.00
4:53 am 04:53 Cloudy 46 7.8 43 6.1 89 89 S 9 15 29.77 1008 10 16 0.00 0.00
5:53 am 05:53 Cloudy 45 7.2 43 6.1 93 93 S 8 13 29.78 1009 10 16 0.00 0.00
6:53 am 06:53 Cloudy 46 7.8 43 6.1 89 89 SSE 7 11 29.78 1009 10 16 0.00 0.00
7:53 am 07:53 Cloudy 47 8.3 43 6.1 86 86 SSE 9 15 29.80 1009 10 16 0.00 0.00
8:53 am 08:53 Cloudy 46 7.8 44 6.7 93 93 S 6 9 29.83 1010 10 16 0.00 0.00
9:53 am 09:53 Cloudy 48 8.9 44 6.7 86 86 SSW 5 7 29.83 1010 10 16 0.00 0.00
10:02 am 10:02 Cloudy 48 8.9 44 6.7 86 86 S 5 7 29.83 1010 10 16 0.00 0.00
10:41 am 10:41 Cloudy 50 10 44 6.7 80 80 SSE 8 13 29.83 1010 10 16 0.00 0.00
10:53 am 10:53 Cloudy 51 10.6 44 6.7 77 77 S 7 11 29.84 1011 10 16 0.00 0.00
11:53 am 11:53 Cloudy 52 11.1 44 6.7 75 75 S 10 17 29.85 1011 10 16 0.00 0.00
12:38 pm 12:38 Cloudy 53 11.7 44 6.7 72 72 SSW 3 6 29.84 1010 10 16 0.00 0.00
12:53 pm 12:53 Cloudy 52 11.1 43 6.1 72 72 SSE 5 7 29.85 1011 10 16 0.00 0.00
1:19 pm 13:19 Cloudy 53 11.7 44 6.7 72 72 S 7 11 29.84 1010 10 16 0.00 0.00
1:33 pm 13:33 Cloudy 54 12.2 44 6.7 69 69 SSW 9 15 29.83 1010 10 16 0.00 0.00
1:53 pm 13:53 Mostly Cloudy 56 13.3 43 6.1 62 62 S 8 13 29.85 1011 10 16 0.00 0.00
2:53 pm 14:53 Partly Cloudy 58 14.4 42 5.6 56 56 SSE 8 13 29.84 1011 10 16 0.00 0.00
3:53 pm 15:53 Cloudy 55 12.8 45 7.2 69 69 SE 10 17 29.85 1011 10 16 0.00 0.00
4:01 pm 16:01 Cloudy 54 12.2 45 7.2 72 72 SE 12 19 29.83 1010 10 16 0.00 0.00
4:29 pm 16:29 Cloudy 55 12.8 45 7.2 69 69 ESE 9 15 29.83 1010 10 16 0.00 0.00
4:53 pm 16:53 Cloudy 56 13.3 44 6.7 65 65 SE 9 15 29.85 1011 10 16 0.00 0.00
5:53 pm 17:53 Cloudy 56 13.3 45 7.2 67 67 S 10 17 29.85 1011 10 16 0.00 0.00
6:01 pm 18:01 Cloudy 56 13.3 45 7.2 67 67 S 9 15 29.82 1010 10 16 0.00 0.00
6:16 pm 18:16 Cloudy 57 13.9 45 7.2 64 64 S 12 19 29.81 1010 10 16 0.00 0.00
6:53 pm 18:53 Mostly Cloudy 56 13.3 45 7.2 67 67 S 13 20 29.84 1011 10 16 0.00 0.00
7:53 pm 19:53 Cloudy 54 12.2 45 7.2 72 72 S 7 11 29.85 1011 10 16 0.00 0.00
8:53 pm 20:53 Cloudy 53 11.7 45 7.2 74 74 S 7 11 29.86 1011 10 16 0.00 0.00
9:53 pm 21:53 Mostly Cloudy 49 9.4 43 6.1 80 80 SSE 7 11 29.88 1012 10 16 0.00 0.00
10:53 pm 22:53 Cloudy 49 9.4 44 6.7 83 83 S 8 13 29.89 1012 10 16 0.00 0.00
11:53 pm 23:53 Cloudy 49 9.4 43 6.1 80 80 S 7 11 29.89 1012 10 16 0.00 0.00

Powered by AerisWeather